Vertical_Velocity
-0 -0 0 0 0 0 0 0 0 -0 -0 -0 0 0 -0 -0 -0 -0 -0 -0 -0 -0 -0 -1 -1 -1 -1 -1 -1 -1 -1 -1 -1 -1 -1 -1 -1 -1 -1 -1 -1 -1 -1 -1 -1 -1 -1 -1 -0 0 1 1 0 0 0 1 1 0 0 0 0 0 0 0 0 0 0 0 0 -0 -0 -0 -0 -0 -0 -0 -0 -0 -0 -0 -1 -1 -1 -1 -1 -1 -1 -1 -1 -1 -1 -1 -1 -1 -1 -1 -1 -1 -1 -1 -1 -1 -0
-1 -1 -0 -0 0 0 0 0 -0 -0 0 0 0 0 0 0 0 0 0 0 0 0 0 -0 -0 -0 -0 -0 -0 -1 -1 -1 -1 -1 -1 -1 -1 -1 -1 -1 -1 -1 -1 -1 -1 -1 -1 -1 -1 -0 0 0 0 -0 -0 0 1 1 0 0 0 0 0 0 0 0 0 0 0 0 0 0 0 0 -0 -0 -0 -0 -0 -0 -0 -0 -0 -0 -0 -0 -1 -1 -1 -1 -1 -1 -1 -1 -1 -1 -0 -0 -0 -0 -0 -0 -0
-1 -1 -1 -0 -0 -0 -0 -0 -0 -0 -0 0 0 0 0 0 0 0 0 0 1 1 1 0 0 0 -0 -0 -0 -0 -1 -1 -1 -1 -1 -1 -1 -1 -1 -1 -1 -1 -1 -1 -1 -1 -2 -2 -1 -1 -1 -0 -0 -0 -1 -0 0 1 0 0 0 0 0 0 0 0 0 0 1 1 1 1 1 0 0 0 0 0 0 0 0 0 0 0 0 -0 -0 -0 -0 -0 -1 -1 -1 -1 -1 -1 -0 -0 -0 -0 -0 0 0
-1 -1 -1 -1 -1 -0 -0 -0 -0 -0 -0 0 0 0 0 0 0 0 0 0 0 1 1 1 1 0 0 0 -0 -0 -0 -1 -1 -1 -1 -1 -1 -1 -1 -0 -1 -1 -1 -1 -1 -1 -1 -1 -2 -1 -1 -1 -0 -0 -1 -1 -0 0 0 0 0 0 0 0 1 1 1 1 1 1 1 1 1 1 1 1 1 1 0 0 0 0 0 0 0 0 0 0 0 0 -0 -0 -1 -1 -1 -1 -1 -0 -0 -0 -0 0 0
-1 -1 -1 -1 -1 -1 -0 -0 -0 -0 -0 -0 0 0 0 0 0 0 0 0 0 0 1 1 1 1 1 0 0 -0 -0 -0 -0 -0 -0 -0 -0 -0 -0 -0 -0 -0 -0 -0 -0 -0 -1 -1 -1 -1 -1 -1 -0 -0 -1 -1 -1 0 0 0 0 0 0 0 1 1 1 1 1 1 1 1 1 1 1 1 1 1 1 1 1 1 1 1 1 1 1 1 1 1 0 0 0 0 -0 -0 -0 -0 -0 -0 -0 -0 -0
-1 -1 -1 -1 -1 -1 -1 -0 -0 -0 -0 -0 0 0 0 0 0 0 0 0 0 0 0 0 1 1 1 1 0 0 0 -0 -0 -0 -0 -0 -0 -0 0 0 0 0 0 0 0 0 0 -0 -0 -0 -0 -0 -0 0 -0 -1 -1 -1 0 0 0 0 0 0 1 1 1 1 1 1 1 1 1 1 1 1 1 1 1 1 1 1 1 1 1 1 1 1 1 1 1 1 1 1 1 0 0 0 0 0 0 -0 -0
-1 -1 -1 -1 -1 -1 -1 -0 -0 -0 0 0 0 0 0 0 0 0 0 0 0 0 0 0 0 0 1 1 1 0 0 0 0 0 0 0 0 0 0 0 0 0 0 0 0 0 0 0 0 0 0 0 0 0 0 -1 -1 -1 -0 0 0 0 1 1 1 1 1 1 1 1 1 1 1 1 1 1 1 1 1 1 1 1 1 1 1 1 1 1 1 1 1 1 1 1 1 1 1 1 1 1 1 0 0
-1 -1 -1 -1 -1 -1 -0 -0 -0 -0 0 0 0 0 0 0 1 1 1 1 1 1 1 0 0 0 0 0 0 1 1 1 1 1 0 0 0 0 0 0 0 0 1 1 1 1 1 1 1 1 1 1 1 1 1 0 -0 -1 -0 0 0 0 0 1 1 1 1 1 1 1 1 1 1 1 1 1 1 1 1 1 1 1 1 1 1 1 1 1 1 1 1 1 1 1 1 1 1 1 1 1 1 1 1
-1 -1 -1 -1 -1 -0 -0 -0 -0 -0 0 0 0 0 0 0 0 1 1 1 1 1 1 1 1 0 0 0 0 1 1 1 1 1 1 1 1 1 1 1 1 1 1 1 1 1 1 1 1 1 1 1 1 1 1 1 0 0 -0 0 0 0 0 1 1 1 1 1 1 1 1 1 1 1 1 1 1 1 1 1 1 1 1 1 1 1 1 1 1 1 1 1 1 1 1 1 2 2 1 1 1 1 1
-0 -0 -0 -1 -0 -0 -0 -0 -0 -0 -0 0 0 0 0 0 0 0 0 1 1 1 1 1 1 1 1 1 1 1 1 1 1 1 1 1 1 1 1 1 1 1 1 1 1 1 1 1 1 1 1 1 1 1 2 1 1 1 1 1 1 1 1 1 1 1 1 1 1 1 1 1 1 1 1 1 1 1 1 1 1 2 2 2 2 2 2 1 1 1 1 1 1 1 1 1 2 2 2 2 2 2 1
-0 -0 -0 -0 -0 -0 -0 -0 0 0 0 0 0 0 0 0 0 0 0 1 1 1 2 2 2 2 2 1 1 1 1 1 1 1 1 1 1 2 1 1 1 1 1 1 1 1 1 1 1 1 1 1 1 1 2 2 2 1 1 1 1 1 1 1 1 1 1 1 1 1 1 1 1 1 1 1 1 1 1 1 1 2 2 2 2 2 2 2 2 2 1 1 1 1 1 1 2 2 2 2 2 2 2
-0 -0 0 0 0 0 0 0 0 0 0 0 0 0 0 0 0 0 0 1 1 1 1 2 2 2 2 2 2 2 2 1 1 1 1 1 2 2 2 2 2 2 2 2 2 2 2 1 1 1 1 1 1 1 2 2 2 2 2 2 1 1 1 1 1 1 1 1 1 1 1 1 1 1 1 1 1 1 1 1 1 1 1 2 2 2 2 2 2 2 2 2 1 1 1 1 1 1 2 2 2 2 2
0 0 0 0 1 1 1 1 1 1 1 1 1 1 1 1 1 1 1 1 1 1 1 2 2 2 3 3 3 3 3 2 2 2 2 2 2 2 2 2 2 2 2 2 2 2 2 2 2 2 2 1 1 1 2 2 2 2 2 2 2 2 2 2 2 1 1 1 1 1 1 1 1 1 1 1 1 1 1 1 1 1 1 1 1 2 2 2 2 2 2 2 2 1 1 1 1 1 1 1 2 2 2
0 0 1 1 1 1 1 1 1 1 1 1 1 1 1 1 1 1 1 1 1 1 1 2 2 2 2 3 3 3 3 3 3 3 3 3 2 2 2 2 2 2 2 2 2 2 2 2 1 1 1 1 1 1 1 1 2 2 2 2 2 2 2 2 2 2 2 2 2 2 2 1 1 1 1 2 2 2 2 2 1 1 1 1 1 1 1 2 2 2 2 2 2 2 1 1 1 1 1 1 1 1 2
0 0 1 1 1 1 1 1 1 1 1 1 1 1 1 1 1 1 1 1 1 1 1 1 2 2 2 2 2 3 3 3 3 4 4 3 3 3 3 3 2 2 2 2 2 2 2 2 1 1 1 1 1 1 1 1 1 1 2 2 2 2 2 2 2 2 2 2 2 2 2 2 2 2 2 2 2 2 2 2 2 2 2 1 1 1 1 1 1 2 2 2 2 2 2 2 1 1 1 0 0 1 1
0 0 1 1 2 2 2 1 1 1 1 1 1 1 1 1 1 1 1 1 1 1 1 1 1 2 2 2 2 2 2 2 3 3 3 4 4 4 4 3 3 3 3 3 3 3 2 2 2 2 2 2 2 1 1 1 1 1 2 2 2 1 1 2 2 2 2 2 2 2 2 2 2 2 2 1 1 1 2 2 2 2 2 1 1 1 1 1 1 1 1 1 1 1 2 2 2 1 1 1 0 0 0
0 0 1 1 2 2 2 2 2 2 1 1 1 1 1 1 1 1 1 1 1 1 1 1 1 1 1 1 1 2 1 2 2 2 2 3 3 3 4 4 4 3 3 3 3 3 3 3 3 2 2 2 2 2 2 2 1 2 2 2 2 2 1 1 1 1 1 2 2 2 1 2 2 2 2 1 1 1 1 1 1 1 1 1 1 1 1 1 1 1 1 1 1 1 1 1 1 1 1 1 1 1 0
-1 -0 0 1 1 1 2 2 2 2 2 1 1 1 1 1 1 1 1 1 1 1 1 1 1 1 1 1 1 1 1 1 1 1 1 1 2 2 3 3 3 3 3 3 3 3 4 3 3 3 3 2 2 2 2 2 2 2 2 2 2 2 2 2 1 1 1 1 1 1 1 1 1 1 1 1 1 1 1 1 1 1 1 1 1 1 1 1 1 1 1 1 1 1 0 0 1 1 1 1 1 1 1
-2 -2 -1 -1 -0 0 1 1 1 1 1 2 2 1 1 1 1 1 1 1 1 1 1 1 1 1 1 0 1 1 1 1 1 1 1 1 1 1 1 2 2 2 3 3 3 3 3 3 3 3 3 3 2 2 2 2 2 2 2 2 2 2 2 2 2 1 1 1 1 1 1 1 1 1 1 1 1 1 1 1 1 1 1 1 1 1 1 1 0 0 0 1 1 0 0 0 0 0 0 0 0 1 1
-0 -1 -1 -1 -1 -1 -1 -0 0 0 1 1 1 1 1 1 1 2 2 2 2 2 1 2 2 1 1 1 1 1 1 1 1 1 1 1 1 1 0 0 1 1 1 2 2 3 3 3 3 3 3 3 2 2 2 2 2 2 2 2 2 2 2 2 2 2 1 1 1 1 1 1 1 1 1 1 1 1 1 1 1 1 1 1 1 1 1 1 0 0 0 0 0 0 0 0 0 0 0 0 0 0 0
4 3 2 1 0 -0 -1 -0 -0 -0 -0 0 1 1 1 1 1 2 2 2 2 2 2 2 2 2 2 2 1 1 2 1 1 1 1 1 2 1 1 1 0 -0 -1 -0 0 1 1 2 2 3 3 2 2 2 2 2 1 1 1 1 1 1 1 2 2 2 1 1 1 1 1 1 1 1 1 1 1 1 1 1 1 1 0 0 0 0 0 0 0 0 0 0 0 0 0 0 0 0 0 -0 -0 -0 -0
4 4 3 3 2 2 1 1 0 0 -0 -0 -0 -0 -0 0 0 1 1 2 2 2 1 1 1 1 1 1 1 1 1 1 2 2 2 2 2 2 3 2 2 1 0 -0 -0 -0 -0 0 1 1 2 2 2 2 2 1 1 1 1 1 1 1 1 1 1 1 1 1 1 1 1 1 1 1 1 1 1 1 1 1 0 0 0 -0 -0 -0 -0 -0 -0 -0 -0 -0 -0 -0 -0 -0 -0 -0 -0 -0 -0 -0 -1
2 2 2 3 3 3 2 2 1 1 1 0 -0 -1 -1 -1 -1 -1 -1 -0 0 0 1 1 0 0 0 0 0 0 0 0 1 1 1 2 2 3 3 3 4 4 3 3 2 2 1 1 0 0 1 1 1 1 1 1 1 1 1 1 0 0 -0 -0 -0 -0 -0 0 0 0 0 0 0 0 0 -0 -0 -0 -0 -0 -0 -0 -1 -1 -1 -1 -1 -1 -1 -1 -1 -1 -1 -1 -1 -1 -1 -1 -1 -1 -1 -1 -1
0 1 1 1 1 2 2 2 2 2 2 2 2 1 0 -1 -1 -2 -2 -2 -1 -1 -0 0 0 1 1 1 1 1 0 0 0 0 1 1 1 1 2 2 3 3 4 4 4 3 3 2 1 1 0 0 -0 -0 -0 -0 -0 -0 -0 -0 -1 -1 -1 -1 -1 -1 -2 -2 -1 -1 -1 -1 -1 -1 -1 -1 -1 -1 -1 -1 -1 -1 -1 -2 -2 -2 -2 -2 -2 -2 -2 -2 -2 -2 -1 -2 -1 -1 -1 -1 -1 -1 -1
-1 -1 -0 0 0 0 1 1 1 2 2 3 3 3 3 2 1 0 -1 -1 -1 -1 -1 -1 -1 -0 -0 0 0 0 0 -0 -1 -1 -1 -1 -1 -1 -1 -0 -0 0 1 1 1 1 1 1 0 -0 -0 -1 -1 -1 -1 -2 -2 -2 -2 -2 -2 -2 -2 -2 -2 -3 -3 -3 -3 -3 -2 -2 -2 -2 -2 -2 -2 -2 -2 -2 -2 -2 -2 -2 -2 -2 -2 -2 -2 -2 -2 -2 -2 -2 -2 -2 -2 -2 -2 -2 -2 -1 -1
-2 -2 -1 -1 -1 -1 -0 0 0 1 1 1 2 2 2 2 1 0 -0 -1 -2 -2 -2 -2 -2 -1 -1 -1 -1 -1 -1 -1 -2 -2 -2 -3 -2 -2 -2 -2 -2 -2 -2 -2 -1 -1 -1 -1 -1 -1 -1 -2 -2 -2 -2 -2 -3 -3 -4 -4 -4 -4 -4 -4 -4 -4 -4 -4 -4 -4 -4 -3 -3 -3 -3 -3 -3 -3 -3 -3 -2 -2 -2 -2 -2 -2 -2 -2 -2 -2 -2 -2 -2 -2 -2 -2 -2 -2 -2 -2 -2 -2 -2
-3 -3 -3 -3 -3 -2 -2 -1 -1 -1 -0 0 1 1 1 1 1 0 -1 -1 -1 -2 -2 -2 -2 -1 -1 -1 -1 -1 -0 -1 -1 -2 -2 -2 -2 -2 -2 -2 -1 -2 -2 -2 -2 -1 -1 -1 -1 -1 -1 -1 -1 -1 -1 -2 -2 -2 -3 -3 -3 -4 -4 -4 -4 -4 -4 -4 -4 -4 -4 -4 -4 -4 -3 -3 -3 -3 -3 -3 -3 -3 -2 -2 -2 -2 -2 -2 -2 -2 -2 -2 -2 -2 -2 -2 -2 -2 -2 -2 -2 -2 -2
-4 -4 -4 -4 -4 -4 -3 -3 -3 -2 -2 -2 -1 -1 -0 -0 -0 -0 -1 -1 -1 -1 -1 -1 -1 -1 -1 -1 -0 0 0 -0 -0 -0 -0 -1 -1 -1 -1 -1 -0 -0 -0 -0 -0 -0 -0 0 0 0 0 1 1 1 1 1 0 -0 -1 -1 -1 -2 -2 -2 -3 -3 -3 -3 -4 -4 -4 -4 -4 -4 -3 -3 -3 -2 -2 -2 -2 -2 -2 -2 -2 -2 -1 -1 -1 -1 -1 -1 -1 -1 -1 -1 -1 -1 -1 -1 -1 -1 -2
-3 -3 -3 -3 -3 -3 -3 -3 -3 -3 -3 -3 -3 -2 -1 -1 -1 -1 -1 -1 -1 -1 -1 -1 -1 -1 -1 -1 -1 -0 -0 0 0 1 1 1 0 -0 -0 -0 -0 0 0 -0 -0 0 0 0 1 1 1 1 1 1 2 2 2 2 2 1 1 0 -0 -1 -1 -2 -2 -2 -3 -3 -3 -3 -3 -3 -3 -2 -2 -1 -1 -1 -1 -1 -1 -1 -1 -1 -1 -1 -1 -1 -1 -1 -1 -1 -1 -1 -1 -1 -1 -1 -1 -1 -1
-2 -2 -2 -2 -2 -2 -2 -2 -1 -1 -1 -2 -2 -2 -1 -1 -0 -0 -0 0 0 0 0 0 0 0 -0 -0 -1 -1 -1 -1 -0 0 1 1 1 1 1 0 -0 -0 -0 -1 -1 -1 -1 -1 -1 -0 -0 0 0 1 1 2 2 2 2 2 2 2 1 1 0 -1 -1 -1 -2 -2 -2 -3 -3 -3 -3 -2 -2 -1 -1 0 0 0 0 0 -0 -0 -0 0 0 0 0 0 0 -0 -0 -0 -0 -0 -0 -0 0 0 -0
-2 -2 -2 -2 -2 -1 -1 -1 -1 -0 -0 -0 -0 -0 0 0 1 1 1 1 1 0 0 0 0 0 -0 -0 -1 -1 -1 -1 -1 -1 -0 0 1 1 1 1 1 1 0 -0 -1 -1 -1 -2 -2 -1 -1 -1 -1 -0 -0 0 1 1 2 2 2 2 2 1 1 1 1 0 -0 -1 -1 -2 -2 -2 -3 -3 -3 -2 -2 -1 -0 0 1 1 0 0 0 0 0 0 0 0 1 0 0 0 0 0 0 0 0 0 1
-1 -1 -1 -1 -1 -1 -2 -2 -2 -2 -2 -2 -2 -1 -1 -1 -0 -0 -0 -0 -0 -1 -1 -1 -1 -1 -1 -1 -1 -1 -1 -2 -2 -2 -1 -1 -1 -0 -0 -0 0 1 1 1 0 0 0 -1 -1 -1 -1 -1 -1 -1 -1 -1 -0 0 1 1 1 1 1 2 2 2 2 2 2 1 1 0 -0 -1 -2 -2 -2 -3 -3 -2 -2 -1 -1 -0 -0 0 0 -0 -0 -0 -0 -0 0 0 0 1 1 1 1 0 0 0 0
0 0 0 0 -0 -1 -1 -2 -2 -2 -3 -3 -3 -2 -2 -2 -2 -1 -1 -1 -1 -1 -1 -1 -1 -1 -1 -2 -2 -2 -2 -2 -2 -2 -2 -1 -1 -1 -2 -1 -1 -1 -0 -0 0 1 0 0 0 0 0 -0 -0 -1 -1 -1 -1 -0 0 0 1 1 1 1 1 2 2 2 2 2 1 1 1 0 -0 -1 -1 -2 -2 -2 -2 -2 -2 -2 -1 -1 -0 -0 -0 -0 -0 -1 -1 -0 -0 0 0 0 1 1 0 0 0
1 1 1 0 0 -0 -1 -1 -1 -1 -1 -2 -2 -2 -2 -2 -2 -2 -2 -1 -1 -1 -1 -1 -1 -1 -1 -1 -1 -1 -1 -2 -2 -2 -2 -1 -1 -1 -2 -1 -1 -1 -2 -1 -1 -0 -0 -0 0 0 1 1 0 0 -0 -1 -1 -1 -0 0 0 0 0 0 1 1 1 1 1 1 1 1 1 1 0 0 -0 -1 -1 -2 -2 -2 -3 -2 -2 -2 -1 -0 -0 0 0 -0 -1 -1 -1 -1 -1 -0 0 0 0 0 0
-0 -0 -0 -0 -0 -1 -1 -1 -1 -1 -1 -1 -1 -1 -1 -1 -2 -2 -2 -2 -1 -1 -1 -1 -1 -1 -1 -1 -1 -1 -1 -2 -2 -2 -1 -1 -1 -1 -1 -2 -2 -2 -2 -1 -1 -1 -1 -1 -0 0 0 0 0 0 -0 -1 -1 -0 0 1 1 1 0 0 1 1 1 1 1 1 1 1 1 1 1 0 0 -0 -1 -1 -1 -2 -2 -2 -2 -2 -2 -1 -1 -0 -0 -0 -0 -0 -1 -1 -1 -1 -1 -0 -0 0 0
-2 -2 -1 -1 -1 -1 -1 -1 -1 -1 -1 -1 -1 -1 -2 -2 -2 -2 -2 -2 -2 -1 -1 -1 -1 -1 -1 -1 -0 -0 -1 -1 -1 -1 -1 -1 -1 -1 -1 -2 -2 -2 -2 -2 -1 -1 -2 -1 -1 -0 -1 -0 -0 -0 -0 -1 -1 -0 0 0 0 0 0 0 1 1 1 1 1 1 1 2 2 1 1 1 1 0 0 -0 -0 -1 -1 -1 -2 -2 -2 -2 -2 -1 -1 -0 0 0 0 -0 -0 -1 -1 -1 -1 -1 -0
-2 -2 -2 -2 -2 -2 -2 -2 -2 -2 -3 -2 -2 -2 -2 -2 -2 -2 -2 -2 -2 -1 -1 -1 -1 -1 -1 -1 -1 -1 -1 -1 -1 -1 -1 -1 -2 -2 -1 -2 -2 -2 -2 -2 -2 -2 -2 -1 -1 -1 -1 -1 -1 -1 -1 -1 -0 -0 -0 -1 -1 -1 -0 -0 0 1 1 1 1 2 2 2 2 2 1 1 1 1 1 1 0 0 -0 -0 -1 -1 -1 -1 -1 -1 -1 -1 -0 -0 0 0 0 -0 -1 -1 -1 -1 -1
-1 -1 -1 -1 -1 -2 -2 -2 -2 -2 -2 -2 -2 -2 -2 -2 -2 -1 -1 -1 -1 -1 -1 -1 -1 -1 -1 -1 -1 -1 -1 -1 -1 -1 -1 -1 -1 -1 -1 -1 -1 -1 -1 -1 -1 -1 -1 -1 -1 -1 -1 -1 -1 -1 -0 0 0 0 -1 -1 -1 -1 -1 -0 -0 0 1 1 2 2 2 2 2 1 1 1 1 1 1 1 1 1 0 0 -0 -0 -1 -1 -1 -1 -1 -1 -1 -1 -0 -0 -0 -1 -1 -1 -1 -1 -1
1 0 0 -0 -1 -1 -1 -1 -1 -1 -1 -1 -1 -1 -1 -1 -1 -1 -1 -1 -1 -1 -1 -1 -1 -1 -0 -1 -1 -1 -0 -1 -1 -1 -0 -0 -0 0 0 -0 -1 -1 -0 -0 -0 -1 -0 -0 -0 -0 -0 -1 -1 -1 0 1 1 0 -0 -1 -1 -1 -0 -0 0 1 1 1 2 2 2 1 1 1 1 1 1 1 1 1 1 1 1 0 0 0 -0 -1 -1 -1 -1 -1 -2 -1 -1 -1 -1 -1 -0 0 0 -0 -1
0 0 -0 -0 -1 -1 -1 -1 -1 -0 -0 -0 -1 -1 -1 -1 -1 -1 -1 -1 -1 -1 -1 -1 -1 -1 0 0 -0 -0 -0 -0 -1 -1 -0 -0 -0 0 1 1 0 0 0 0 -0 0 0 0 0 0 0 0 -0 0 1 1 1 1 0 0 -0 0 0 1 1 1 1 1 2 2 2 1 1 1 1 0 0 0 1 1 1 1 0 0 0 0 -0 -1 -1 -1 -1 -1 -1 -1 -1 -1 -1 -1 -0 0 0 -0 -1
-1 -1 -0 -1 -1 -1 -1 -1 -0 -0 -0 -0 -0 -0 -1 -1 -1 -1 -1 -1 -1 -1 -1 -1 -1 -1 -1 0 0 -0 -0 -0 -1 -1 -1 -1 -0 -0 0 1 1 0 0 -0 -0 0 0 0 0 0 0 0 0 0 1 1 1 1 0 0 0 1 1 1 1 1 1 1 2 2 2 2 1 1 0 0 0 0 0 1 0 0 0 0 0 0 -0 -0 -0 -1 -1 -1 -1 -1 -1 -1 -1 -1 -1 -0 -0 -0 -1
-1 -1 -0 -0 -0 -0 -0 -0 -0 -0 0 0 0 0 0 -0 -0 -0 -1 -0 -0 0 0 -0 -1 -1 -1 -0 0 0 -0 -0 -0 -1 -2 -2 -1 -1 -0 -0 0 0 -1 -1 -1 -1 -0 -0 -0 -0 -0 -0 0 0 1 1 1 1 0 0 1 1 2 1 1 1 1 1 1 2 2 2 2 1 1 1 1 1 1 1 1 0 0 0 0 0 0 0 -0 -0 -0 -1 -1 -1 -1 -1 -1 -1 -1 -1 -1 -0 -0
-0 -0 -0 -0 -0 -0 -0 -0 -0 0 0 0 0 1 1 0 0 -0 -0 -0 0 0 1 0 -1 -1 -2 -1 -0 0 -0 -0 -0 -1 -2 -2 -1 -1 -0 -0 -0 -1 -1 -2 -2 -1 -1 -1 -1 -1 -1 -1 -1 -0 0 0 0 0 0 0 1 2 2 1 1 1 1 1 1 1 2 2 2 2 1 1 1 1 1 1 1 1 1 1 1 1 0 0 0 0 -0 -0 -0 -1 -1 -1 -1 -1 -1 -1 -1 -0 -0
-0 -0 -0 -0 -0 -0 -0 -0 -0 -0 -0 -0 0 0 0 -0 -0 -0 -1 -1 -0 -0 0 0 -0 -1 -2 -2 -1 -1 -0 -0 -0 -0 -1 -1 -1 -0 0 0 -0 -1 -1 -1 -1 -1 -1 -1 -2 -2 -2 -2 -2 -2 -1 -0 -0 -0 -0 0 1 1 1 1 1 0 -0 -0 -0 0 1 1 1 1 1 1 1 2 2 2 1 1 1 1 1 1 1 1 1 1 0 0 -0 -0 -0 -1 -1 -1 -1 -1 -1 -1 -1
-0 -0 -0 -0 -0 -0 -1 -1 -1 -1 -1 -1 -0 -0 -0 -1 -1 -1 -1 -1 -1 -1 -1 -0 -0 -0 -1 -2 -2 -1 -1 -1 -1 -1 -1 -1 -0 1 1 1 1 0 -0 0 0 0 -1 -1 -1 -1 -1 -1 -2 -2 -2 -1 -1 -1 -0 -0 -0 -0 0 0 0 -0 -1 -1 -1 -0 -0 -0 0 0 0 1 1 1 1 1 1 1 1 1 1 1 1 1 1 1 1 1 1 0 -0 -0 -1 -1 -1 -1 -1 -1 -1
-1 -1 -1 -1 -1 -1 -1 -1 -1 -1 -1 -1 -1 -1 -1 -1 -1 -2 -2 -2 -2 -2 -2 -2 -1 -1 -1 -1 -2 -2 -2 -1 -2 -2 -2 -1 -0 0 1 1 1 1 0 1 2 1 0 -0 0 0 -0 -1 -2 -2 -2 -1 -1 -0 0 -0 -0 -0 0 -0 -0 -1 -1 -1 -1 -1 -1 -1 -1 -1 -1 -0 0 0 1 1 1 0 0 0 1 1 1 1 1 1 1 1 1 1 0 0 -0 -0 -0 -1 -1 -1 -1
-1 -1 -1 -1 -1 -1 -1 -1 -1 -1 -1 -1 -1 -1 -1 -1 -1 -1 -2 -2 -2 -2 -2 -2 -2 -1 -1 -1 -1 -1 -1 -2 -3 -3 -4 -1 0 0 -1 -1 1 2 2 1 1 1 1 1 1 1 1 -0 -1 -1 -1 -0 -0 0 1 0 1 1 1 1 1 0 -1 -1 -0 0 -0 -0 -1 -1 -1 -1 -0 -0 0 0 0 0 -0 -0 -0 -0 0 0 1 1 1 1 1 1 1 1 0 0 0 -0 -0 -1 -1
-1 -1 -1 -1 -1 -1 -1 -1 -1 -1 -1 -1 -1 -1 -1 -1 -1 -1 -1 -1 -2 -2 -2 -2 -2 -2 -1 -0 0 1 0 -2 -3 -4 -5 -4 -1 1 1 -2 -2 0 3 2 0 0 1 1 1 1 1 0 -0 0 0 0 0 0 1 1 1 2 2 2 2 1 1 1 1 1 1 1 0 -0 -1 -1 -1 -0 0 0 0 0 0 -0 -1 -1 -1 -0 -0 0 0 0 0 0 0 0 1 0 0 0 0 0 -0
-1 -1 -1 -1 -1 -1 -1 -1 -1 -1 -1 -1 -1 -1 -1 -1 -1 -1 -1 -1 -2 -2 -2 -1 -1 -2 -3 -1 0 2 1 -1 -3 -4 -3 -5 -4 -3 1 2 0 -0 2 2 1 0 0 1 1 1 -0 0 1 1 1 1 0 0 0 1 1 1 2 3 2 2 1 2 2 2 2 1 1 0 0 0 0 0 0 1 1 1 1 1 0 -0 -1 -0 -0 -0 -0 -0 -0 -0 0 0 0 0 0 0 0 0 0
-2 -2 -2 -2 -2 -2 -2 -2 -2 -2 -1 -1 -1 -1 -1 -1 -1 -1 -1 -1 -2 -2 -3 -2 -1 -1 -2 -3 -1 1 2 -1 -3 -3 -4 -4 -5 -6 -8 -2 2 4 3 2 1 1 1 1 1 0 -0 0 1 1 1 1 1 1 1 1 1 1 2 2 2 2 1 2 2 3 3 2 1 1 1 1 1 1 1 1 1 1 1 1 1 0 0 0 -0 -0 -0 -1 -1 -0 -0 0 0 0 -0 -0 -0 -0 -0
-2 -2 -2 -2 -2 -2 -2 -2 -2 -2 -2 -1 -1 -1 -1 -1 -1 -1 -1 -1 -2 -2 -3 -4 -2 -1 0 -2 -2 -0 2 -1 -2 -3 -5 -5 -3 -3 -10 -10 -6 -0 4 5 5 4 3 1 1 0 -0 1 1 2 1 1 1 1 1 1 1 1 2 2 2 1 1 1 2 3 2 2 1 1 1 1 1 1 1 1 1 1 1 1 1 1 1 1 0 0 -0 -0 -0 -0 -0 -0 -0 -0 -0 -0 -0 -0 -0
-2 -2 -2 -2 -2 -2 -1 -1 -1 -2 -2 -2 -1 -1 -0 -0 -1 -1 -0 -1 -1 -2 -2 -3 -4 -3 -1 -0 -1 -1 2 0 -1 -2 -2 -6 -5 -3 -3 -7 -10 -10 -5 -2 3 9 13 4 1 1 2 1 1 1 1 0 0 0 0 0 0 0 1 1 0 0 0 1 2 2 2 2 1 1 1 1 1 1 1 1 1 1 1 1 0 0 0 1 1 0 0 -0 -0 -0 -0 -0 -0 -0 -0 -0 -0 -0 -0
-2 -2 -2 -2 -1 -1 -1 -1 -1 -1 -1 -1 -1 -1 0 0 0 -0 -0 -0 -1 -1 -2 -2 -3 -3 -3 -1 -0 0 1 2 1 -1 -1 -4 -6 -7 -4 -1 -6 -11 -11 -12 -13 -6 15 9 3 -1 4 3 1 -1 0 -0 -1 -2 -1 -1 -1 -1 0 -0 -1 -1 -1 0 1 2 2 2 2 1 1 1 1 1 1 1 1 0 0 0 0 0 0 0 0 0 -0 -0 -0 -0 -0 -0 -0 -0 -0 -1 -1 -0 -0
-1 -1 -1 -1 -1 -1 -1 -1 -1 -1 -1 -1 -1 -0 0 0 0 0 -0 -0 -1 -1 -1 -2 -2 -2 -4 -3 -1 0 0 2 2 0 -2 -2 -4 -7 -11 -5 -3 -3 -6 -6 -15 -20 -9 5 3 -2 1 5 3 -0 1 1 -0 -2 -1 -1 -1 -1 -0 -1 -1 -1 -1 -0 0 1 1 2 2 2 1 1 1 1 1 1 1 1 0 0 0 0 0 1 1 0 -0 -0 -0 -0 -1 -1 -0 -0 -0 -0 -0 -0 -0
-1 -1 -1 -1 -1 -1 -1 -1 -1 -1 -1 -1 -1 -1 -0 0 0 0 0 -0 -0 -1 -1 -1 -1 -2 -3 -4 -3 -1 0 2 2 1 -2 -3 -2 -2 -7 -10 -9 -7 -5 -3 -4 -9 -16 -9 -5 -2 2 7 4 -0 2 4 3 1 1 1 0 -1 -1 -1 -1 -1 -1 0 1 1 1 1 1 1 2 1 1 1 2 2 1 1 1 0 0 0 1 1 1 0 -0 -0 0 -0 -0 -1 -1 -1 -1 -1 -0 -0 -0
-1 -1 -1 -1 -1 -1 -1 -0 -0 -1 -1 -1 -1 -1 -1 -0 0 0 0 0 -0 -0 -1 -1 -1 -1 -1 -4 -4 -4 -1 1 2 2 -1 -3 -2 -1 -0 -4 -9 -13 -15 -13 -9 -5 -4 -7 -13 -15 -5 12 8 -3 -2 4 4 3 1 2 1 -0 -2 -2 -2 -1 -2 -0 1 1 1 1 1 0 1 1 1 1 2 2 1 1 1 1 0 0 1 1 1 1 0 0 0 0 0 -0 -1 -1 -1 -1 -1 -1 -1
-2 -2 -2 -2 -2 -1 -1 -1 -1 -1 -1 -1 -1 -1 -1 -1 -1 -1 -0 -0 -0 -1 -1 -1 -1 -1 -1 -2 -3 -4 -3 -0 2 2 1 -1 -2 -2 -0 -0 -1 -3 -5 -12 -14 -13 -10 -1 -6 -17 -26 5 13 7 -5 -1 2 5 4 2 2 1 -1 -2 -2 -2 -2 -2 -1 -1 -0 1 0 -0 0 1 2 2 2 2 2 1 1 1 1 1 1 1 1 1 0 0 0 1 1 1 0 -1 -1 -1 -1 -1 -1
-3 -3 -3 -3 -2 -2 -2 -2 -2 -1 -2 -2 -2 -1 -1 -1 -1 -1 -1 -1 -1 -1 -1 -1 -1 -1 -2 -2 -3 -3 -4 -2 -0 1 1 1 0 -0 -1 -2 -2 -1 -0 -3 -5 -9 -15 -10 -6 -9 -24 -17 2 18 14 -2 -4 1 5 4 3 2 0 -1 -1 -2 -2 -2 -2 -3 -2 -1 -0 -0 -1 0 1 2 2 2 2 2 1 1 1 1 1 1 1 1 0 0 0 0 1 1 1 0 -0 -1 -1 -1 -1
-1 -1 -2 -2 -2 -2 -2 -2 -2 -2 -2 -2 -2 -2 -2 -2 -2 -2 -2 -1 -1 -1 -2 -2 -2 -1 -2 -2 -3 -3 -4 -2 -0 0 -1 -1 1 3 2 -2 -3 -2 -2 -3 -2 -3 -6 -11 -13 -13 -12 -25 -22 -4 26 15 4 -3 -2 3 4 3 1 1 1 1 -0 -1 -2 -2 -4 -2 -1 -0 -1 -1 -0 1 2 3 3 3 2 1 1 0 1 1 1 1 0 0 0 0 1 1 1 1 0 -0 -0 -0 -0
1 1 0 -0 -1 -1 -2 -2 -2 -2 -3 -3 -3 -3 -2 -2 -2 -2 -2 -2 -1 -1 -1 -2 -2 -1 -1 -1 -2 -3 -4 -3 -1 0 -0 -3 -2 1 5 0 -2 -2 -1 -2 -2 -2 -3 -4 -7 -9 -12 -20 -27 -27 -12 14 18 9 -2 0 2 2 1 3 3 3 1 1 0 -0 -2 -2 -2 -1 -1 -1 -1 -0 0 2 3 3 3 2 1 1 0 1 1 1 0 0 -0 0 1 1 1 1 1 0 0 0 0
1 1 1 1 0 -0 -1 -1 -1 -2 -2 -2 -3 -3 -2 -2 -2 -2 -2 -2 -2 -1 -1 -1 -1 -1 -1 -1 -1 -2 -3 -3 -2 -0 1 -2 -4 -2 3 2 -0 -1 -1 -1 -1 -1 -2 -3 -2 -3 -7 -14 -20 -25 -30 -10 6 12 3 5 3 -0 -3 2 5 5 2 1 1 1 -0 -1 -2 -1 -1 -1 -1 -1 -1 0 2 3 3 2 1 1 0 0 1 1 0 0 0 0 1 0 0 0 1 1 1 1 1
Height
3190 3190 3190 3190 3190 3190 3190 3190 3190 3190 3190 3190 3190 3190 3190 3190 3191 3191 3191 3191 3191 3191 3191 3191 3191 3191 3191 3191 3191 3191 3191 3191 3191 3191 3192 3192 3192 3192 3192 3192 3192 3192 3192 3192 3192 3193 3193 3193 3193 3193 3193 3193 3193 3193 3193 3193 3193 3193 3193 3193 3193 3193 3193 3193 3193 3193 3193 3193 3193 3193 3193 3193 3193 3193 3193 3193 3193 3193 3193 3193 3192 3192 3192 3192 3192 3192 3192 3192 3192 3192 3192 3192 3192 3192 3192 3192 3192 3192 3192 3191 3191 3191 3191
3189 3189 3189 3189 3189 3189 3189 3189 3190 3190 3190 3190 3190 3190 3190 3190 3190 3190 3190 3191 3191 3191 3191 3191 3191 3191 3191 3191 3191 3191 3191 3191 3191 3191 3191 3191 3191 3192 3192 3192 3192 3192 3192 3192 3192 3192 3192 3192 3193 3193 3193 3193 3193 3193 3193 3193 3193 3193 3193 3193 3193 3193 3193 3193 3193 3193 3193 3193 3193 3193 3193 3193 3193 3193 3193 3193 3193 3193 3192 3192 3192 3192 3192 3192 3192 3192 3192 3192 3192 3192 3191 3191 3191 3191 3191 3191 3191 3191 3191 3191 3191 3191 3191
3189 3189 3189 3189 3189 3189 3189 3189 3189 3189 3189 3189 3189 3190 3190 3190 3190 3190 3190 3190 3190 3190 3191 3191 3191 3191 3191 3191 3191 3191 3191 3191 3191 3191 3191 3191 3191 3191 3191 3191 3192 3192 3192 3192 3192 3192 3192 3192 3192 3192 3193 3193 3193 3193 3192 3193 3193 3193 3193 3193 3193 3193 3193 3193 3193 3193 3193 3193 3193 3193 3193 3193 3193 3192 3192 3192 3192 3192 3192 3192 3192 3192 3192 3192 3192 3192 3191 3191 3191 3191 3191 3191 3191 3191 3191 3191 3191 3191 3191 3191 3191 3190 3190
3189 3189 3189 3189 3189 3189 3189 3189 3189 3189 3189 3189 3189 3189 3189 3189 3189 3190 3190 3190 3190 3190 3190 3190 3190 3190 3190 3190 3190 3190 3190 3190 3190 3190 3191 3191 3191 3191 3191 3191 3191 3191 3191 3191 3192 3192 3192 3192 3192 3192 3192 3192 3192 3192 3192 3192 3192 3192 3192 3192 3192 3192 3192 3192 3192 3192 3192 3192 3192 3192 3192 3192 3192 3192 3192 3192 3192 3192 3192 3192 3192 3192 3192 3191 3191 3191 3191 3191 3191 3191 3191 3191 3191 3191 3191 3191 3190 3190 3190 3190 3190 3190 3190
3188 3188 3188 3188 3188 3188 3188 3188 3188 3188 3189 3189 3189 3189 3189 3189 3189 3189 3189 3189 3190 3190 3190 3190 3190 3190 3190 3190 3190 3190 3190 3190 3190 3190 3190 3190 3190 3190 3190 3191 3191 3191 3191 3191 3191 3191 3191 3192 3192 3192 3192 3192 3192 3192 3192 3192 3192 3192 3192 3192 3192 3192 3192 3192 3192 3192 3192 3192 3192 3192 3192 3192 3192 3192 3192 3192 3192 3192 3191 3191 3191 3191 3191 3191 3191 3191 3191 3191 3191 3190 3190 3190 3190 3190 3190 3190 3190 3190 3190 3190 3190 3190 3190
3188 3188 3188 3188 3188 3188 3188 3188 3188 3188 3188 3188 3188 3188 3188 3189 3189 3189 3189 3189 3189 3189 3189 3190 3190 3190 3190 3190 3190 3190 3190 3190 3190 3190 3190 3190 3190 3190 3190 3190 3190 3190 3191 3191 3191 3191 3191 3191 3191 3191 3192 3192 3192 3192 3192 3192 3192 3192 3192 3192 3192 3192 3192 3192 3192 3192 3192 3192 3192 3191 3191 3191 3191 3191 3191 3191 3191 3191 3191 3191 3191 3191 3191 3191 3190 3190 3190 3190 3190 3190 3190 3190 3190 3190 3190 3189 3189 3189 3189 3189 3189 3189 3189
3188 3188 3188 3188 3188 3188 3188 3188 3188 3188 3188 3188 3188 3188 3188 3188 3188 3188 3188 3189 3189 3189 3189 3189 3189 3189 3189 3189 3189 3189 3189 3189 3189 3189 3189 3190 3190 3190 3190 3190 3190 3190 3190 3190 3190 3191 3191 3191 3191 3191 3191 3191 3191 3191 3191 3191 3191 3191 3191 3191 3191 3191 3191 3191 3191 3191 3191 3191 3191 3191 3191 3191 3191 3191 3191 3191 3191 3191 3190 3190 3190 3190 3190 3190 3190 3190 3190 3190 3189 3189 3189 3189 3189 3189 3189 3189 3189 3189 3189 3189 3189 3188 3188
3188 3188 3187 3187 3187 3187 3187 3187 3187 3188 3188 3188 3188 3188 3188 3188 3188 3188 3188 3188 3188 3188 3188 3188 3189 3189 3189 3189 3189 3189 3189 3189 3189 3189 3189 3189 3189 3189 3189 3190 3190 3190 3190 3190 3190 3190 3190 3190 3190 3191 3191 3191 3191 3191 3191 3191 3191 3191 3191 3191 3191 3191 3191 3191 3191 3191 3191 3191 3191 3191 3190 3190 3190 3190 3190 3190 3190 3190 3190 3190 3190 3190 3189 3189 3189 3189 3189 3189 3189 3189 3189 3188 3188 3188 3188 3188 3188 3188 3188 3188 3188 3188 3188
3187 3187 3187 3187 3187 3187 3187 3187 3187 3187 3187 3187 3187 3187 3188 3188 3188 3188 3188 3188 3188 3188 3188 3188 3188 3188 3188 3188 3188 3188 3189 3189 3189 3189 3189 3189 3189 3189 3189 3189 3189 3189 3190 3190 3190 3190 3190 3190 3190 3190 3190 3190 3190 3190 3190 3190 3190 3190 3190 3190 3190 3190 3190 3190 3190 3190 3190 3190 3190 3190 3190 3190 3190 3190 3189 3189 3189 3189 3189 3189 3189 3189 3189 3189 3189 3188 3188 3188 3188 3188 3188 3188 3188 3188 3188 3188 3188 3188 3187 3187 3187 3187 3187
3187 3187 3187 3187 3187 3187 3187 3187 3187 3187 3187 3187 3187 3187 3187 3187 3187 3187 3188 3188 3188 3188 3188 3188 3188 3188 3188 3188 3188 3188 3188 3188 3188 3188 3188 3188 3188 3189 3189 3189 3189 3189 3189 3189 3189 3189 3189 3189 3189 3189 3189 3190 3190 3190 3190 3190 3190 3190 3190 3190 3190 3190 3190 3190 3190 3189 3189 3189 3189 3189 3189 3189 3189 3189 3189 3189 3188 3188 3188 3188 3188 3188 3188 3188 3188 3188 3188 3188 3188 3188 3187 3187 3187 3187 3187 3187 3187 3187 3187 3187 3186 3186 3186
3187 3187 3187 3186 3186 3186 3186 3186 3186 3186 3186 3186 3186 3186 3187 3187 3187 3187 3187 3187 3187 3187 3188 3188 3188 3188 3188 3188 3188 3188 3188 3188 3188 3188 3188 3188 3188 3188 3188 3188 3188 3188 3189 3189 3189 3189 3189 3189 3189 3189 3189 3189 3189 3189 3189 3189 3189 3189 3189 3189 3189 3189 3189 3189 3189 3189 3188 3188 3188 3188 3188 3188 3188 3188 3188 3188 3188 3188 3188 3188 3187 3187 3187 3187 3187 3187 3187 3187 3187 3187 3187 3186 3186 3186 3186 3186 3186 3186 3186 3186 3186 3185 3185
3186 3186 3186 3186 3186 3186 3186 3186 3186 3186 3186 3186 3186 3186 3186 3186 3186 3186 3186 3187 3187 3187 3187 3187 3187 3187 3187 3187 3187 3187 3187 3187 3187 3187 3187 3187 3188 3188 3188 3188 3188 3188 3188 3188 3188 3188 3188 3188 3188 3188 3188 3188 3188 3188 3188 3188 3188 3188 3188 3188 3188 3188 3188 3188 3188 3188 3188 3188 3188 3188 3187 3187 3187 3187 3187 3187 3187 3187 3187 3187 3186 3186 3186 3186 3186 3186 3186 3186 3186 3186 3186 3186 3185 3185 3185 3185 3185 3185 3185 3185 3185 3185 3184
3186 3186 3186 3186 3186 3186 3186 3186 3186 3186 3186 3186 3186 3186 3186 3186 3186 3186 3186 3186 3186 3186 3186 3186 3187 3187 3187 3187 3187 3187 3187 3187 3187 3187 3187 3187 3187 3187 3187 3187 3187 3187 3188 3188 3188 3188 3188 3188 3188 3188 3188 3188 3188 3187 3187 3187 3187 3187 3187 3187 3187 3187 3187 3187 3187 3187 3187 3187 3187 3186 3186 3186 3186 3186 3186 3186 3186 3186 3186 3185 3185 3185 3185 3185 3185 3185 3185 3185 3185 3185 3185 3184 3184 3184 3184 3184 3184 3184 3184 3183 3183 3183 3183
3185 3185 3185 3185 3186 3186 3185 3185 3185 3185 3185 3185 3185 3185 3185 3185 3185 3185 3185 3185 3185 3185 3186 3186 3186 3186 3186 3186 3186 3186 3186 3186 3186 3186 3186 3186 3186 3186 3186 3186 3186 3186 3187 3187 3187 3187 3187 3187 3187 3187 3187 3187 3187 3186 3186 3186 3186 3186 3186 3186 3186 3186 3186 3186 3186 3186 3186 3185 3185 3185 3185 3185 3185 3185 3185 3185 3185 3185 3184 3184 3184 3184 3184 3184 3184 3184 3183 3183 3183 3183 3183 3183 3183 3183 3183 3183 3183 3183 3183 3182 3182 3182 3182
3185 3185 3185 3185 3185 3185 3185 3185 3185 3185 3185 3185 3185 3185 3185 3185 3185 3185 3185 3185 3185 3185 3185 3185 3185 3185 3185 3185 3185 3185 3185 3186 3186 3186 3186 3186 3186 3186 3186 3186 3186 3186 3186 3186 3186 3186 3186 3186 3186 3186 3186 3186 3185 3185 3185 3185 3185 3185 3185 3185 3185 3185 3185 3185 3184 3184 3184 3184 3184 3184 3184 3184 3184 3184 3184 3183 3183 3183 3183 3183 3183 3183 3183 3183 3183 3183 3182 3182 3182 3182 3182 3182 3182 3182 3182 3182 3182 3181 3181 3181 3181 3181 3181
3184 3184 3184 3184 3185 3185 3185 3184 3184 3184 3184 3184 3184 3184 3184 3184 3184 3184 3184 3184 3184 3184 3184 3184 3184 3184 3184 3184 3184 3184 3184 3184 3185 3185 3185 3185 3185 3185 3185 3185 3185 3185 3185 3185 3185 3185 3185 3185 3185 3185 3185 3184 3184 3184 3184 3184 3184 3184 3184 3184 3184 3184 3183 3183 3183 3183 3183 3183 3183 3183 3183 3183 3183 3183 3183 3182 3182 3182 3182 3182 3182 3182 3182 3181 3181 3181 3181 3181 3181 3181 3181 3180 3180 3180 3180 3180 3180 3180 3180 3180 3180 3179 3179
3183 3183 3183 3184 3184 3184 3184 3184 3184 3184 3184 3183 3183 3183 3183 3183 3183 3183 3183 3183 3183 3183 3183 3183 3183 3183 3183 3183 3183 3183 3183 3183 3183 3183 3184 3184 3184 3184 3184 3184 3184 3184 3184 3184 3184 3184 3184 3184 3183 3183 3183 3183 3183 3183 3183 3183 3183 3183 3183 3183 3183 3183 3182 3182 3182 3182 3182 3182 3182 3182 3181 3181 3181 3181 3181 3181 3181 3181 3181 3180 3180 3180 3180 3180 3180 3180 3179 3179 3179 3179 3179 3179 3179 3179 3179 3178 3178 3178 3178 3178 3178 3178 3178
3183 3183 3183 3183 3183 3183 3183 3183 3183 3183 3183 3183 3183 3183 3183 3183 3183 3183 3183 3182 3182 3182 3182 3182 3182 3182 3182 3182 3182 3182 3182 3182 3182 3182 3182 3183 3183 3183 3183 3183 3183 3183 3183 3183 3183 3183 3183 3183 3183 3182 3182 3182 3182 3182 3182 3182 3182 3182 3181 3181 3181 3181 3181 3181 3181 3180 3180 3180 3180 3180 3180 3180 3180 3179 3179 3179 3179 3179 3179 3179 3179 3178 3178 3178 3178 3178 3178 3178 3178 3178 3178 3177 3177 3177 3177 3177 3177 3177 3177 3177 3177 3177 3176
3182 3182 3182 3182 3182 3182 3182 3182 3182 3182 3182 3182 3182 3182 3182 3182 3182 3182 3182 3182 3181 3181 3181 3181 3181 3181 3181 3181 3181 3181 3181 3181 3181 3181 3181 3181 3181 3181 3181 3181 3181 3181 3181 3181 3181 3181 3181 3181 3181 3181 3181 3181 3180 3180 3180 3180 3180 3180 3180 3180 3180 3179 3179 3179 3179 3179 3179 3178 3178 3178 3178 3178 3178 3178 3178 3178 3177 3177 3177 3177 3177 3177 3177 3177 3176 3176 3176 3176 3176 3176 3176 3175 3175 3175 3175 3175 3175 3175 3175 3175 3175 3175 3175
3181 3181 3181 3181 3181 3181 3181 3181 3181 3181 3181 3181 3181 3181 3181 3181 3181 3181 3181 3181 3180 3180 3180 3180 3180 3180 3180 3180 3180 3180 3180 3179 3179 3179 3179 3179 3179 3179 3179 3179 3179 3179 3179 3179 3179 3179 3180 3179 3179 3179 3179 3179 3179 3179 3178 3178 3178 3178 3178 3178 3178 3178 3178 3177 3177 3177 3177 3177 3176 3176 3176 3176 3176 3176 3176 3175 3175 3175 3175 3175 3175 3175 3174 3174 3174 3174 3174 3174 3174 3174 3173 3173 3173 3173 3173 3173 3173 3173 3173 3173 3173 3173 3173
3181 3181 3181 3181 3180 3180 3180 3180 3180 3179 3179 3179 3179 3179 3179 3179 3179 3179 3179 3179 3179 3179 3179 3179 3179 3179 3178 3178 3178 3178 3178 3178 3178 3178 3178 3178 3178 3178 3178 3178 3178 3178 3177 3178 3178 3178 3178 3178 3178 3178 3177 3177 3177 3177 3177 3176 3176 3176 3176 3176 3176 3175 3175 3175 3175 3175 3175 3174 3174 3174 3174 3174 3174 3173 3173 3173 3173 3173 3173 3173 3173 3172 3172 3172 3172 3172 3172 3172 3172 3171 3171 3171 3171 3171 3171 3171 3171 3171 3171 3171 3171 3171 3170
3180 3180 3180 3180 3180 3179 3179 3179 3179 3178 3178 3178 3178 3178 3178 3178 3178 3178 3178 3178 3178 3178 3178 3177 3177 3177 3177 3177 3177 3177 3177 3177 3177 3177 3177 3177 3177 3177 3177 3176 3176 3176 3176 3176 3175 3175 3175 3175 3175 3175 3175 3175 3175 3175 3174 3174 3174 3174 3174 3173 3173 3173 3173 3173 3173 3173 3172 3172 3172 3172 3172 3172 3171 3171 3171 3171 3171 3171 3170 3170 3170 3170 3170 3170 3169 3169 3169 3169 3169 3169 3169 3169 3169 3169 3169 3169 3168 3168 3168 3168 3168 3168 3168
3178 3178 3178 3178 3178 3178 3178 3178 3178 3178 3177 3177 3177 3177 3176 3176 3176 3176 3176 3176 3176 3176 3176 3175 3175 3175 3175 3175 3175 3175 3175 3175 3175 3175 3175 3175 3175 3175 3175 3175 3175 3175 3174 3174 3174 3174 3173 3173 3173 3173 3173 3173 3173 3173 3172 3172 3172 3172 3172 3171 3171 3171 3171 3170 3170 3170 3170 3170 3169 3169 3169 3169 3169 3169 3168 3168 3168 3168 3168 3168 3168 3168 3168 3167 3167 3167 3167 3167 3167 3167 3167 3167 3167 3167 3167 3167 3166 3166 3166 3166 3166 3166 3166
3176 3176 3176 3176 3176 3177 3177 3177 3176 3176 3176 3176 3176 3176 3175 3175 3175 3174 3174 3174 3174 3174 3174 3174 3174 3174 3173 3173 3173 3173 3173 3173 3173 3173 3173 3173 3173 3173 3173 3173 3173 3173 3173 3173 3172 3172 3172 3172 3171 3171 3171 3170 3170 3170 3170 3170 3170 3169 3169 3169 3169 3168 3168 3168 3168 3168 3167 3167 3167 3167 3167 3167 3167 3166 3166 3166 3166 3166 3166 3166 3165 3165 3165 3165 3165 3165 3165 3165 3164 3164 3164 3164 3164 3164 3164 3164 3164 3164 3164 3164 3164 3164 3164
3174 3174 3174 3174 3174 3174 3175 3175 3175 3175 3175 3175 3175 3175 3174 3174 3174 3173 3173 3173 3172 3172 3172 3172 3172 3172 3172 3172 3172 3171 3171 3171 3171 3171 3170 3170 3170 3170 3170 3170 3170 3170 3170 3170 3170 3170 3169 3169 3169 3169 3168 3168 3168 3168 3168 3168 3167 3167 3167 3167 3166 3166 3166 3166 3166 3165 3165 3165 3165 3165 3164 3164 3164 3164 3164 3164 3164 3164 3163 3163 3163 3163 3163 3163 3163 3163 3163 3163 3163 3162 3162 3162 3162 3162 3162 3162 3162 3162 3162 3162 3162 3162 3162
3173 3173 3173 3173 3173 3173 3173 3173 3173 3173 3173 3173 3173 3173 3173 3173 3172 3172 3171 3171 3171 3170 3170 3170 3170 3170 3170 3169 3169 3169 3169 3169 3168 3168 3168 3168 3168 3168 3168 3168 3168 3168 3168 3168 3167 3167 3167 3167 3167 3167 3166 3166 3166 3166 3166 3165 3165 3165 3165 3164 3164 3164 3164 3164 3163 3163 3163 3163 3163 3163 3162 3162 3162 3162 3162 3162 3162 3162 3161 3161 3161 3161 3161 3161 3161 3161 3160 3160 3160 3160 3160 3160 3160 3160 3160 3160 3160 3160 3159 3159 3159 3159 3159
3171 3171 3171 3171 3171 3171 3171 3171 3171 3171 3171 3171 3171 3171 3171 3171 3170 3170 3170 3169 3169 3169 3168 3168 3168 3168 3168 3168 3168 3168 3167 3167 3167 3167 3166 3166 3166 3166 3166 3166 3166 3166 3166 3165 3165 3165 3165 3165 3165 3165 3165 3164 3164 3164 3164 3164 3163 3163 3163 3163 3162 3162 3162 3162 3161 3161 3161 3161 3160 3160 3160 3160 3160 3160 3160 3159 3159 3159 3159 3159 3159 3159 3159 3158 3158 3158 3158 3158 3158 3158 3158 3158 3158 3158 3158 3158 3157 3157 3157 3157 3157 3157 3157
3170 3170 3170 3170 3169 3169 3169 3169 3169 3169 3169 3169 3169 3169 3169 3169 3168 3168 3168 3168 3168 3167 3167 3167 3167 3166 3166 3166 3166 3166 3165 3165 3165 3165 3165 3164 3164 3164 3164 3164 3164 3163 3163 3163 3163 3163 3163 3163 3163 3163 3163 3163 3162 3162 3162 3162 3162 3161 3161 3161 3160 3160 3160 3159 3159 3159 3158 3158 3158 3158 3158 3158 3157 3157 3157 3157 3157 3157 3157 3157 3157 3156 3156 3156 3156 3156 3156 3156 3156 3156 3155 3155 3155 3155 3155 3155 3155 3155 3155 3155 3154 3154 3154
3169 3169 3169 3169 3168 3168 3168 3168 3168 3168 3168 3168 3167 3167 3167 3167 3167 3167 3167 3166 3166 3166 3165 3165 3165 3165 3164 3164 3164 3164 3164 3163 3163 3163 3163 3163 3163 3162 3162 3162 3162 3162 3161 3161 3161 3161 3161 3161 3160 3160 3160 3160 3160 3160 3160 3160 3160 3159 3159 3159 3158 3158 3158 3157 3157 3157 3156 3156 3156 3155 3155 3155 3155 3155 3154 3154 3154 3154 3154 3154 3154 3154 3153 3153 3153 3153 3153 3153 3153 3153 3153 3153 3153 3153 3153 3153 3152 3152 3152 3152 3152 3152 3152
3168 3168 3168 3168 3168 3168 3167 3167 3167 3167 3167 3166 3166 3166 3166 3166 3166 3165 3165 3165 3164 3164 3164 3164 3163 3163 3163 3163 3162 3162 3162 3161 3161 3161 3161 3161 3161 3160 3160 3160 3160 3159 3159 3159 3159 3158 3158 3158 3158 3158 3158 3158 3158 3158 3158 3158 3158 3157 3157 3157 3157 3156 3156 3155 3155 3154 3154 3154 3153 3153 3153 3153 3152 3152 3152 3152 3152 3152 3152 3151 3151 3151 3151 3151 3151 3150 3150 3150 3150 3150 3150 3150 3150 3150 3150 3150 3150 3149 3149 3149 3149 3149 3149
3168 3168 3167 3167 3167 3167 3166 3166 3166 3166 3165 3165 3165 3165 3164 3164 3164 3164 3163 3163 3163 3163 3162 3162 3162 3161 3161 3160 3160 3160 3159 3159 3159 3159 3159 3158 3158 3158 3158 3158 3158 3157 3157 3157 3157 3156 3156 3156 3156 3156 3155 3155 3155 3155 3155 3155 3155 3155 3155 3154 3154 3154 3154 3153 3153 3153 3152 3152 3152 3151 3151 3150 3150 3150 3149 3149 3149 3149 3148 3148 3148 3148 3148 3148 3148 3148 3148 3147 3147 3147 3147 3147 3147 3147 3147 3147 3147 3147 3147 3147 3147 3147 3146
3167 3167 3166 3166 3166 3166 3165 3165 3164 3164 3164 3163 3163 3163 3163 3163 3162 3162 3162 3161 3161 3161 3160 3160 3159 3159 3159 3158 3158 3158 3157 3157 3157 3157 3156 3156 3156 3156 3155 3155 3155 3155 3155 3154 3154 3154 3154 3153 3153 3153 3153 3153 3153 3153 3152 3152 3152 3152 3152 3152 3152 3151 3151 3151 3151 3150 3150 3150 3150 3149 3149 3148 3148 3148 3147 3147 3146 3146 3146 3145 3145 3145 3145 3145 3145 3145 3144 3144 3144 3144 3144 3144 3144 3144 3144 3144 3143 3143 3143 3143 3143 3143 3143
3166 3166 3165 3165 3165 3164 3164 3163 3163 3163 3163 3162 3162 3161 3161 3161 3160 3160 3160 3159 3159 3158 3158 3158 3158 3157 3157 3156 3156 3156 3155 3155 3154 3154 3154 3154 3153 3153 3153 3153 3152 3152 3152 3152 3152 3152 3151 3151 3151 3151 3151 3150 3150 3150 3149 3149 3149 3149 3149 3149 3149 3148 3148 3148 3148 3148 3148 3148 3147 3147 3147 3146 3146 3145 3145 3144 3144 3143 3143 3143 3142 3142 3142 3142 3142 3142 3142 3141 3141 3141 3141 3141 3141 3141 3140 3140 3140 3140 3140 3140 3140 3140 3140
3165 3165 3164 3164 3163 3163 3163 3162 3162 3162 3161 3161 3160 3160 3160 3159 3159 3158 3158 3158 3157 3157 3156 3156 3156 3155 3155 3154 3154 3153 3153 3153 3152 3152 3152 3152 3151 3151 3150 3150 3150 3149 3149 3149 3149 3149 3149 3148 3148 3148 3148 3148 3148 3147 3147 3147 3146 3146 3146 3146 3146 3146 3145 3145 3145 3145 3145 3145 3144 3144 3144 3143 3143 3143 3142 3142 3141 3140 3140 3139 3139 3139 3138 3138 3138 3138 3138 3138 3138 3138 3138 3138 3138 3137 3137 3137 3137 3137 3137 3137 3137 3137 3137
3163 3163 3163 3162 3162 3162 3161 3161 3160 3160 3160 3159 3159 3158 3158 3158 3157 3157 3156 3156 3156 3155 3155 3154 3154 3153 3153 3153 3152 3152 3151 3151 3150 3150 3150 3149 3149 3148 3148 3148 3147 3147 3147 3146 3146 3146 3146 3146 3146 3146 3145 3145 3145 3144 3144 3144 3143 3143 3143 3143 3143 3143 3143 3143 3142 3142 3142 3142 3142 3141 3141 3141 3140 3140 3139 3139 3138 3138 3137 3137 3136 3136 3135 3135 3135 3135 3135 3134 3134 3134 3134 3134 3134 3134 3134 3134 3133 3133 3133 3133 3133 3133 3133
3162 3162 3161 3161 3160 3160 3160 3159 3159 3158 3158 3158 3157 3157 3157 3156 3156 3155 3155 3154 3154 3153 3153 3153 3152 3152 3151 3151 3150 3150 3149 3149 3148 3148 3148 3147 3147 3146 3146 3145 3145 3144 3144 3144 3143 3143 3143 3143 3143 3143 3142 3142 3142 3142 3141 3141 3141 3141 3140 3140 3140 3140 3140 3139 3139 3139 3139 3139 3139 3138 3138 3138 3138 3137 3136 3136 3135 3135 3134 3134 3133 3133 3132 3132 3132 3131 3131 3131 3131 3131 3131 3131 3131 3131 3130 3130 3130 3130 3130 3130 3130 3130 3130
3161 3160 3160 3159 3159 3159 3158 3158 3157 3157 3156 3156 3156 3155 3155 3154 3154 3153 3153 3153 3152 3152 3151 3151 3150 3150 3149 3149 3149 3148 3148 3147 3146 3146 3146 3145 3144 3144 3143 3143 3143 3142 3142 3141 3141 3141 3140 3140 3140 3140 3139 3139 3139 3138 3138 3138 3138 3138 3137 3137 3137 3137 3136 3136 3136 3136 3136 3136 3136 3136 3135 3135 3134 3134 3133 3133 3132 3132 3131 3131 3130 3130 3129 3129 3128 3128 3128 3128 3127 3127 3127 3127 3127 3127 3127 3126 3126 3127 3126 3126 3126 3126 3126
3160 3159 3159 3158 3158 3158 3157 3157 3156 3156 3155 3155 3154 3154 3153 3153 3152 3152 3151 3151 3151 3150 3149 3149 3148 3148 3148 3147 3147 3146 3146 3145 3144 3144 3143 3143 3143 3142 3142 3141 3140 3140 3140 3139 3139 3138 3138 3138 3137 3137 3137 3136 3136 3136 3135 3135 3135 3135 3134 3134 3133 3133 3133 3133 3133 3133 3133 3133 3133 3133 3132 3132 3131 3131 3130 3130 3129 3128 3128 3128 3127 3127 3126 3126 3125 3125 3124 3124 3124 3123 3123 3123 3123 3123 3123 3123 3123 3123 3123 3123 3123 3123 3123
3159 3158 3158 3158 3157 3157 3156 3156 3155 3154 3154 3153 3153 3152 3152 3151 3151 3150 3149 3149 3148 3148 3148 3147 3147 3146 3146 3145 3145 3144 3144 3143 3143 3142 3142 3141 3140 3140 3139 3139 3138 3138 3138 3137 3137 3136 3136 3135 3135 3134 3134 3134 3133 3133 3133 3133 3132 3132 3131 3131 3130 3130 3130 3130 3130 3130 3130 3130 3130 3129 3129 3128 3128 3128 3127 3126 3126 3125 3125 3124 3124 3123 3123 3122 3122 3121 3121 3121 3120 3120 3119 3119 3119 3119 3119 3119 3119 3119 3119 3119 3119 3119 3119
3158 3158 3157 3156 3156 3155 3155 3154 3154 3153 3153 3152 3152 3151 3150 3149 3149 3148 3148 3147 3147 3146 3145 3145 3144 3144 3144 3143 3143 3142 3142 3141 3140 3140 3139 3138 3138 3138 3137 3137 3136 3136 3135 3135 3134 3134 3133 3133 3133 3132 3132 3131 3131 3130 3130 3130 3129 3129 3128 3128 3128 3127 3127 3127 3127 3127 3127 3127 3126 3126 3126 3125 3125 3124 3123 3123 3122 3122 3121 3121 3120 3120 3119 3119 3118 3118 3118 3117 3117 3116 3116 3116 3115 3115 3115 3115 3115 3115 3115 3115 3115 3115 3115
3157 3156 3156 3155 3154 3154 3153 3153 3153 3152 3151 3151 3150 3149 3149 3148 3147 3147 3146 3145 3145 3144 3143 3143 3142 3142 3141 3141 3140 3140 3139 3139 3138 3137 3137 3136 3136 3135 3135 3134 3134 3133 3133 3132 3132 3131 3131 3130 3130 3129 3129 3128 3128 3128 3128 3127 3127 3126 3126 3125 3125 3125 3124 3124 3124 3124 3124 3123 3123 3123 3123 3122 3122 3121 3120 3120 3119 3118 3118 3118 3117 3117 3116 3116 3115 3115 3114 3114 3113 3113 3113 3112 3112 3111 3111 3111 3111 3111 3111 3110 3110 3110 3111
3155 3155 3154 3154 3153 3153 3152 3152 3151 3151 3150 3149 3149 3148 3147 3147 3146 3145 3144 3144 3143 3143 3142 3141 3140 3139 3139 3138 3138 3138 3137 3136 3136 3135 3134 3133 3133 3133 3132 3132 3131 3131 3130 3129 3128 3128 3128 3128 3127 3126 3126 3125 3125 3125 3124 3124 3124 3123 3123 3123 3122 3122 3122 3122 3121 3121 3121 3120 3120 3120 3119 3119 3118 3118 3117 3117 3116 3116 3115 3114 3114 3113 3113 3113 3112 3112 3111 3111 3110 3110 3109 3109 3108 3108 3108 3107 3107 3107 3107 3106 3106 3106 3106
3154 3154 3153 3153 3152 3151 3151 3150 3150 3149 3148 3148 3147 3147 3146 3145 3144 3143 3143 3142 3141 3141 3140 3139 3138 3137 3137 3136 3135 3135 3134 3134 3133 3132 3131 3131 3130 3130 3129 3129 3128 3128 3127 3126 3126 3125 3125 3124 3124 3123 3123 3123 3122 3122 3121 3121 3120 3120 3120 3119 3119 3119 3119 3119 3118 3118 3118 3117 3117 3116 3116 3116 3115 3115 3114 3114 3113 3113 3112 3112 3111 3110 3110 3109 3109 3108 3108 3108 3107 3107 3106 3106 3105 3105 3104 3104 3103 3103 3103 3103 3103 3103 3103
3153 3153 3152 3151 3151 3150 3149 3149 3148 3148 3147 3146 3146 3145 3144 3143 3142 3141 3141 3140 3139 3138 3138 3137 3136 3135 3134 3133 3133 3132 3132 3131 3130 3129 3129 3128 3128 3127 3127 3126 3126 3125 3124 3123 3123 3123 3122 3121 3121 3120 3120 3119 3119 3118 3118 3118 3117 3117 3117 3116 3116 3116 3116 3115 3115 3115 3114 3113 3113 3113 3113 3112 3112 3112 3111 3111 3110 3110 3109 3108 3108 3107 3107 3106 3106 3105 3105 3104 3104 3103 3103 3103 3102 3102 3101 3101 3100 3100 3099 3099 3099 3099 3099
3152 3151 3151 3150 3149 3149 3148 3147 3147 3146 3145 3144 3144 3143 3142 3141 3140 3139 3138 3138 3137 3136 3136 3135 3134 3133 3132 3131 3131 3130 3129 3128 3128 3127 3126 3125 3125 3124 3124 3124 3123 3122 3121 3121 3120 3120 3119 3118 3118 3117 3117 3116 3115 3115 3114 3114 3114 3113 3113 3113 3113 3113 3112 3112 3112 3111 3111 3110 3110 3109 3109 3108 3108 3108 3108 3107 3107 3106 3106 3105 3105 3104 3103 3103 3103 3102 3102 3101 3101 3100 3100 3099 3099 3098 3098 3098 3097 3097 3096 3096 3096 3095 3095
3151 3150 3149 3149 3148 3147 3147 3146 3145 3144 3143 3143 3142 3141 3140 3139 3138 3138 3137 3136 3135 3134 3133 3133 3132 3131 3130 3129 3128 3128 3127 3126 3125 3124 3123 3123 3122 3122 3121 3121 3120 3119 3119 3118 3118 3117 3116 3116 3115 3114 3114 3113 3112 3111 3111 3111 3110 3110 3110 3110 3109 3109 3109 3108 3108 3108 3107 3107 3106 3106 3105 3105 3104 3104 3103 3103 3103 3102 3102 3102 3101 3100 3100 3099 3099 3099 3098 3098 3098 3097 3097 3096 3096 3095 3095 3094 3094 3093 3093 3093 3093 3092 3092
3149 3148 3148 3147 3147 3146 3145 3144 3143 3143 3142 3141 3141 3140 3139 3138 3137 3136 3135 3134 3133 3133 3132 3131 3130 3129 3128 3128 3127 3126 3125 3124 3123 3121 3121 3120 3120 3119 3118 3118 3117 3117 3116 3116 3115 3114 3113 3113 3112 3112 3111 3110 3109 3108 3108 3108 3107 3107 3107 3106 3106 3106 3105 3105 3105 3104 3103 3103 3103 3102 3102 3101 3101 3100 3100 3099 3099 3098 3098 3098 3097 3097 3096 3096 3095 3095 3094 3094 3093 3093 3093 3093 3092 3092 3091 3091 3091 3090 3090 3089 3089 3089 3088
3148 3147 3147 3146 3145 3144 3144 3143 3142 3142 3141 3140 3139 3138 3138 3137 3136 3135 3133 3133 3132 3131 3130 3129 3128 3127 3126 3126 3125 3124 3123 3121 3120 3119 3118 3117 3117 3116 3115 3114 3114 3114 3113 3113 3112 3111 3111 3110 3109 3109 3108 3107 3106 3106 3105 3104 3104 3103 3103 3103 3103 3103 3102 3102 3101 3101 3100 3100 3099 3099 3098 3098 3097 3097 3096 3095 3095 3094 3094 3094 3093 3093 3093 3092 3091 3091 3090 3090 3089 3089 3089 3088 3088 3088 3087 3087 3087 3086 3086 3086 3085 3085 3085
3146 3146 3145 3144 3144 3143 3142 3142 3141 3140 3139 3138 3138 3137 3136 3135 3134 3133 3132 3131 3129 3128 3128 3127 3126 3125 3124 3123 3123 3122 3121 3119 3118 3116 3115 3114 3113 3113 3112 3111 3111 3110 3110 3110 3109 3108 3108 3107 3107 3106 3105 3104 3103 3103 3102 3101 3101 3100 3100 3100 3099 3099 3099 3098 3098 3097 3097 3096 3096 3096 3095 3094 3094 3093 3092 3092 3091 3091 3090 3090 3089 3089 3089 3088 3088 3087 3086 3086 3085 3085 3084 3084 3084 3083 3083 3083 3083 3082 3082 3082 3081 3081 3081
3145 3144 3143 3143 3142 3141 3141 3140 3139 3138 3138 3137 3136 3135 3134 3133 3132 3131 3130 3129 3127 3126 3125 3124 3123 3122 3121 3120 3120 3119 3118 3117 3115 3113 3112 3111 3110 3109 3108 3108 3108 3108 3107 3107 3106 3105 3105 3104 3103 3103 3102 3101 3100 3100 3099 3098 3098 3097 3097 3096 3096 3096 3095 3095 3094 3094 3093 3093 3093 3092 3092 3091 3090 3089 3089 3088 3088 3087 3087 3086 3086 3085 3085 3084 3083 3083 3082 3082 3081 3081 3080 3080 3079 3079 3079 3078 3078 3078 3078 3077 3077 3077 3077
3143 3143 3142 3141 3140 3140 3139 3138 3137 3136 3135 3135 3134 3133 3132 3131 3130 3129 3128 3127 3125 3124 3123 3122 3121 3120 3119 3118 3117 3117 3116 3114 3113 3111 3110 3108 3107 3105 3104 3103 3103 3103 3103 3103 3103 3102 3101 3101 3100 3099 3098 3098 3097 3097 3096 3095 3095 3094 3093 3093 3093 3092 3092 3091 3091 3090 3089 3089 3089 3088 3088 3087 3087 3086 3085 3084 3084 3083 3083 3082 3082 3081 3081 3080 3079 3079 3078 3078 3077 3077 3076 3076 3075 3075 3074 3074 3074 3073 3073 3073 3073 3073 3072
3142 3141 3140 3139 3139 3138 3137 3136 3135 3134 3133 3133 3132 3131 3130 3129 3128 3127 3126 3125 3123 3122 3121 3119 3118 3118 3117 3115 3115 3114 3113 3112 3110 3109 3107 3106 3104 3103 3101 3100 3099 3098 3098 3098 3098 3099 3098 3097 3096 3095 3095 3094 3094 3093 3093 3092 3091 3090 3090 3089 3089 3088 3088 3087 3087 3086 3085 3085 3085 3084 3084 3083 3083 3082 3081 3081 3080 3079 3079 3078 3078 3077 3077 3076 3075 3075 3074 3074 3073 3073 3072 3072 3071 3071 3070 3070 3070 3069 3069 3069 3068 3068 3068
3140 3139 3139 3138 3137 3136 3135 3134 3133 3133 3131 3131 3130 3129 3128 3127 3126 3125 3123 3123 3121 3120 3118 3117 3116 3115 3114 3113 3112 3112 3111 3110 3108 3107 3105 3103 3102 3100 3099 3098 3096 3094 3093 3092 3092 3093 3095 3093 3092 3091 3091 3091 3090 3089 3089 3088 3087 3087 3086 3085 3085 3084 3084 3083 3083 3082 3082 3081 3081 3081 3080 3079 3079 3078 3077 3077 3076 3076 3075 3074 3073 3073 3072 3072 3071 3071 3070 3070 3069 3069 3068 3068 3067 3067 3066 3066 3065 3065 3065 3064 3064 3064 3063
3139 3138 3137 3136 3135 3134 3133 3133 3132 3131 3129 3128 3128 3127 3126 3125 3124 3123 3122 3120 3119 3118 3116 3115 3113 3112 3111 3111 3110 3109 3108 3108 3106 3105 3103 3101 3099 3098 3096 3095 3094 3092 3090 3089 3088 3087 3088 3088 3087 3087 3087 3087 3086 3086 3086 3085 3084 3083 3083 3082 3081 3081 3080 3079 3078 3078 3078 3077 3077 3077 3076 3076 3075 3074 3073 3073 3072 3072 3071 3070 3070 3069 3068 3068 3067 3066 3066 3066 3065 3065 3064 3064 3063 3063 3062 3062 3061 3061 3061 3060 3060 3059 3059
3138 3137 3136 3135 3134 3133 3132 3131 3130 3129 3128 3126 3125 3125 3124 3123 3122 3120 3119 3118 3117 3115 3114 3113 3111 3110 3109 3108 3107 3106 3105 3105 3104 3102 3100 3098 3097 3095 3094 3093 3091 3090 3088 3087 3085 3084 3083 3083 3082 3082 3083 3083 3082 3082 3082 3082 3081 3080 3080 3079 3078 3077 3076 3075 3074 3074 3073 3073 3073 3073 3072 3072 3071 3070 3070 3069 3068 3068 3067 3067 3066 3065 3064 3063 3063 3063 3062 3062 3061 3061 3060 3060 3059 3059 3058 3058 3057 3057 3057 3056 3056 3055 3055
3136 3135 3134 3133 3132 3131 3130 3129 3128 3127 3126 3124 3123 3122 3121 3120 3119 3118 3117 3116 3114 3113 3112 3110 3109 3108 3106 3105 3104 3103 3103 3102 3101 3100 3098 3096 3095 3093 3092 3090 3088 3087 3085 3083 3082 3081 3080 3079 3077 3077 3078 3079 3078 3077 3078 3078 3077 3077 3076 3075 3074 3073 3072 3071 3070 3069 3069 3068 3068 3068 3068 3067 3067 3066 3066 3065 3064 3064 3063 3063 3062 3061 3060 3060 3059 3059 3058 3058 3058 3057 3056 3056 3055 3055 3055 3054 3053 3053 3053 3052 3052 3051 3051
3134 3133 3132 3131 3130 3129 3128 3127 3126 3125 3123 3122 3121 3120 3119 3118 3117 3116 3114 3113 3112 3111 3109 3108 3107 3105 3104 3102 3101 3100 3100 3099 3099 3098 3096 3094 3093 3092 3090 3088 3087 3085 3083 3081 3079 3078 3077 3076 3074 3072 3072 3074 3074 3073 3073 3073 3073 3073 3073 3072 3071 3070 3068 3067 3066 3065 3064 3064 3063 3063 3063 3062 3062 3061 3061 3060 3060 3059 3059 3058 3058 3057 3057 3056 3055 3055 3054 3054 3054 3053 3053 3052 3052 3051 3051 3051 3050 3049 3049 3048 3048 3047 3046
3133 3131 3130 3129 3128 3127 3126 3125 3123 3122 3121 3120 3119 3118 3117 3115 3114 3113 3112 3111 3109 3108 3107 3105 3104 3103 3102 3100 3098 3098 3097 3096 3096 3095 3093 3092 3091 3089 3088 3086 3084 3083 3081 3079 3078 3075 3073 3073 3071 3069 3066 3066 3068 3070 3069 3068 3068 3069 3069 3068 3068 3066 3065 3064 3063 3062 3061 3060 3059 3058 3057 3057 3056 3056 3055 3055 3055 3054 3054 3054 3053 3053 3053 3052 3052 3051 3051 3050 3050 3049 3049 3048 3048 3048 3048 3047 3047 3046 3045 3044 3044 3043 3043
3131 3130 3128 3127 3126 3125 3124 3123 3121 3120 3119 3118 3116 3115 3114 3113 3112 3110 3109 3108 3107 3106 3104 3103 3102 3100 3099 3098 3096 3095 3094 3093 3093 3092 3090 3089 3088 3087 3086 3084 3082 3080 3078 3077 3075 3073 3071 3069 3068 3066 3063 3060 3060 3063 3065 3064 3063 3063 3063 3064 3063 3062 3061 3060 3059 3058 3058 3056 3055 3054 3053 3052 3051 3051 3050 3049 3049 3049 3049 3049 3049 3048 3048 3048 3048 3047 3047 3047 3046 3046 3045 3045 3044 3044 3044 3043 3043 3042 3042 3041 3040 3039 3038
3129 3128 3127 3126 3124 3123 3122 3121 3119 3118 3117 3116 3114 3113 3112 3111 3109 3108 3107 3106 3104 3103 3102 3100 3099 3098 3097 3095 3094 3092 3091 3090 3089 3088 3087 3086 3085 3084 3083 3081 3079 3078 3076 3075 3073 3071 3069 3067 3065 3063 3061 3058 3055 3054 3056 3058 3059 3058 3058 3058 3058 3058 3057 3056 3056 3055 3054 3053 3052 3050 3049 3048 3047 3046 3045 3045 3044 3044 3043 3043 3044 3044 3043 3043 3043 3043 3043 3042 3042 3042 3042 3041 3041 3040 3040 3039 3039 3038 3038 3037 3036 3036 3035
3127 3126 3125 3124 3123 3122 3120 3119 3118 3116 3115 3114 3113 3111 3110 3108 3107 3106 3105 3103 3102 3101 3099 3098 3097 3095 3094 3093 3091 3090 3088 3087 3086 3085 3084 3083 3082 3081 3080 3078 3077 3075 3074 3072 3071 3069 3067 3065 3063 3062 3059 3056 3053 3050 3048 3050 3052 3053 3052 3053 3052 3051 3051 3051 3051 3051 3050 3049 3048 3047 3046 3044 3043 3042 3041 3040 3040 3039 3039 3038 3038 3039 3038 3038 3038 3038 3038 3038 3038 3038 3037 3037 3037 3036 3036 3035 3035 3034 3034 3033 3033 3032 3031